星链-2348 (STARLINK-2348 )

导读 | 星芒AI

STARLINK-2348 是 SpaceX Starlink 项目中的一颗低轨通信卫星,属于第二代 Starlink 卫星(Gen2)系列。该卫星旨在提供全球高速互联网服务,具备更高的数据传输能力和更先进的激光通信技术,以提升网络效率和覆盖范围。它运行在约 550 公里的轨道高度,设计寿命较长,有助于减少频繁发射需求。STARLINK-2348 的部署进一步增强了 Starlink 网络的稳定性和服务能力,特别是在偏远和网络基础设施薄弱的地区。

基本信息
目录编号:
47888
目录名称:
STARLINK-2348
国际标识:
2021-021AE
轨道中心:
EARTH
卫星名称:
星链-2348
卫星全名:
星链-2348 (STARLINK-2348 )
卫星状态:
已陨落 最后检测时间 2025-04-23
发射日期:
2021-03-14 UTC
国别 :
美国 (US)
星等 :
--
轨道信息
数据来源 国际轨道数据
星历时间: 2025-04-23T06:45:33+0800
轨道信息已过期238天
半长轴: 6531.521km
偏心率: 0.0011245
轨道倾角: 53.030°
近地点辐角 315.533°
升交点赤经 246.353°
平近点角 145.284°
近地点: 146.041km
远地点: 160.731km
周期: 87.555分钟
每日圈数: 16.446798
详细信息
固有亮度:
5
最大亮度:
2.5
卫星平台:
Starlink V1.0
覆盖范围:
全球
运营商:
太空探索技术公司
运营商所在国:
美国
制造商(研发单位):
太空探索技术公司
制造商所在国:
美国
使用方式:
暂无
卫星简介
星链(Starlink)计划是由太空探索技术公司(SpaceX)提出的一个巨型低轨卫星互联网星座项目,计划在2019年至2024年间在太空搭建由约1.2万颗卫星组成的“星链”网络,其中1584颗将部署在地球上空550千米处的近地轨道,并从2020年开始工作。该卫星仍在工作。